Regional Weather Roundup
Issued by NWS Newport/Morehead, NC

Current Version | Previous Version | Graphics & Text | Print | Product List | Glossary On
Versions: 1 2 3 4 5 6 7 8 9 10 11 12 13 14 15 16 17 18 19 20 21 22 23 24 25 26 27 28 29 30 31 32 33 34 35 36 37 38 39 40 41 42 43 44 45 46 47 48 49 50
000 ASUS42 KMHX 030313 RWRMHX WEATHER ROUNDUP FOR EASTERN NORTH CAROLINA NATIONAL WEATHER SERVICE NEWPORT/MOREHEAD CITY NC 1100 PM EDT TUE JUN 02 2015 NOTE: "FAIR" INDICATES FEW OR NO CLOUDS BELOW 12,000 FEET WITH NO SIGNIFICANT WEATHER AND/OR OBSTRUCTIONS TO VISIBILITY NCZ015>017-031-032-045>047-102-103-030400- NORTH COAST CITY SKY/WX TMP DP RH WIND PRES REMARKS EDENTON CLOUDY 69 67 96 NE3 30.03R ELIZABETH CITY CLOUDY 69 67 93 N10 30.04R KITTY HAWK N/A 68 67 98 N3 30.01S MANTEO MOCLDY 69 67 94 CALM 30.03R $$ NCZ045>047-081-094-103-104-030400- CENTRAL COAST CITY SKY/WX TMP DP RH WIND PRES REMARKS FRISCO MOCLDY 73 68 84 SW3 30.02R SWANQUARTER N/A 70 N/A N/A NE1 29.97S $$ NCZ095-097-098-100-101-030400- SOUTHERN COAST CITY SKY/WX TMP DP RH WIND PRES REMARKS BEAUFORT CLOUDY 75 71 87 NE5 30.01S CEDAR ISLAND N/A 75 N/A N/A E5 30.06S JACKSONVILLE MOCLDY 72 67 84 E5 30.00S PINEY ISLAND CLOUDY N/A N/A N/A SE5 30.01S WILMINGTON MOCLDY 73 71 93 CALM 30.00S $$ NCZ011>013-027>030-043-044-078>080-089-090>093-098-030400- COASTAL PLAIN CITY SKY/WX TMP DP RH WIND PRES REMARKS AHOSKIE CLOUDY 68 68 98 CALM 30.04R CLINTON CLOUDY 71 70 98 CALM 30.00F ELIZABETHTOWN CLOUDY 72 72 99 SE3 30.01R GOLDSBORO CLOUDY 71 70 97 CALM 29.99R GREENVILLE CLOUDY 72 72 100 CALM 30.03S HAVELOCK MOCLDY 71 67 87 CALM 30.02S KENANSVILLE CLOUDY 70 68 95 CALM 30.02S KINSTON CLOUDY 72 69 92 SE5 30.02R NEW BERN MOCLDY 69 67 93 CALM 30.02S RICHLANDS MOCLDY 70 64 83 CALM 30.01S ROCKY MOUNT CLOUDY 71 69 93 NE3 30.01R WASHINGTON MOCLDY 70 69 97 CALM 30.02S WHITEVILLE CLOUDY 72 70 93 CALM 30.00R $$ AMZ130-135-150-152-154-156-158-170-250-252-270-ANZ085-086-088-633-658-670-030400- MARINE OBSERVATIONS STATION/POSITION TIME TEMP WIND PRES WAVE SWELL AIR SEA DIR/SP/G HT/PER HT/PER (UTC) (F) (DEG/KT/KT) (MB) (FT/S) (FT/S) CHESAPEAKE LIGHT 0200 66 30/ 18/ 18 1017.4 64 E VA BEACH 0250 72 71 240/ 2/ 4 1016.1 3/ 7 3/ 7 DUCK 0200 63 57 350/ 10/ 13 1015.7 2 E DUCK 0211 63 N/A 2/ 8 OREGON INLET 0200 69 81 90/ 3/ 4 1016.2 13E OREGON INLT 0300 76 N/A 3/ 8 HATTERAS CG 0200 76 80 210/ 1/ 2 1015.7 DIAMOND BUOY 0250 78 81 270/ 4/ 4 1016.5 3/ 8 2/ 8 CAPE LOOKOUT 0300 77 120/ 5/ 6 1016.2 BEAUFORT LAB 0200 78 79 190/ 5/ 6 1015.3 30 SE NEW RVR IN NOT AVBL 27 SE WRIGHTSVLE 0200 78 170/ 4/ 6 N/A 5 SE WRIGHTSVLE 0208 78 79 170/ 8/ 12 1015.6 225 S CAPE HAT 0250 78 78 170/ 6/ 8 1017.6 3/ 8 3/ 8 41 SE CHARLESTON 0250 80 81 180/ 12/ 14 1014.6 2/ 8 2/ 8 $$

USA.gov is the U.S. government's official web portal to all federal, state and local government web resources and services.